User: anonymous   Login
Location: Colonia Mina de C?rbuni
(46.1667°N, 22.7167°E)
Time: 12:44:41
(UTC+00:00)
Language:

Tiros 1 - Orbit

View from above orbital plane
View from above orbital plane
View from above satellite
View from above satellite

Ground track
Ground track

The orbit data is extracted from the following two-line orbital elements,

1 00029U 60002B   25197.91620941  .00000331  00000-0  74394-4 0  9993
2 00029  48.3770 177.1753 0022998 265.4559  94.3727 14.78056891492522
Epoch (UTC): 16 July 2025 21:59:20
Eccentricity: 0.0022998
inclination: 48.3770°
perigee height: 619 km
apogee height: 651 km
right ascension of ascending node: 177.1753°
argument of perigee: 265.4559°
revolutions per day: 14.78056891
mean anomaly at epoch: 94.3727°
orbit number at epoch: 49252

The dashed part of the orbit path shows where the satellite is in the earth's shadow,  

DLR